Time,TemperatureF,DewpointF,PressureIn,WindDirection,WindDirectionDegrees,WindSpeedMPH,WindSpeedGustMPH,Humidity,HourlyPrecipIn,Conditions,Clouds,dailyrainin,SoftwareType,DateUTC
2013-04-15 00:02:00,48.0,47.0,29.67,South,191,2.0,6.0,97,0.00,,,0.01,,2013-04-15 07:02:00,
2013-04-15 00:53:00,47.0,46.0,29.67,SSW,195,2.0,6.0,96,0.00,,,0.01,,2013-04-15 07:53:00,
2013-04-15 01:02:00,47.0,46.0,29.67,SSW,207,5.0,8.0,96,0.00,,,0.01,,2013-04-15 08:02:00,
2013-04-15 01:12:00,47.0,46.0,29.67,SSW,207,5.0,8.0,96,0.00,,,0.01,,2013-04-15 08:12:00,
2013-04-15 01:21:00,48.0,47.0,29.67,SSW,206,2.0,8.0,96,0.00,,,0.01,,2013-04-15 08:21:00,
2013-04-15 01:32:00,48.0,47.0,29.67,SSW,206,2.0,8.0,96,0.00,,,0.01,,2013-04-15 08:32:00,
2013-04-15 01:42:00,48.0,47.0,29.67,SSW,206,2.0,8.0,96,0.00,,,0.01,,2013-04-15 08:42:00,
2013-04-15 01:52:00,48.0,47.0,29.67,SSW,205,4.0,6.0,95,0.00,,,0.01,,2013-04-15 08:52:00,
2013-04-15 02:01:00,47.0,46.0,29.66,SSW,199,6.0,9.0,95,0.00,,,0.01,,2013-04-15 09:01:00,
2013-04-15 02:12:00,47.0,46.0,29.66,SSW,199,6.0,9.0,95,0.00,,,0.01,,2013-04-15 09:12:00,
2013-04-15 02:22:00,47.0,45.0,29.66,South,190,6.0,9.0,94,0.00,,,0.01,,2013-04-15 09:22:00,
2013-04-15 02:32:00,47.0,45.0,29.66,South,190,6.0,9.0,94,0.00,,,0.01,,2013-04-15 09:32:00,
2013-04-15 02:42:00,47.0,45.0,29.66,South,190,6.0,9.0,94,0.00,,,0.01,,2013-04-15 09:42:00,
2013-04-15 02:53:00,47.0,46.0,29.65,SSW,195,6.0,10.0,95,0.00,,,0.01,,2013-04-15 09:53:00,
2013-04-15 03:02:00,47.0,46.0,29.65,SSW,197,5.0,8.0,95,0.00,,,0.01,,2013-04-15 10:02:00,
2013-04-15 03:12:00,47.0,46.0,29.65,SSW,197,5.0,8.0,95,0.00,,,0.01,,2013-04-15 10:12:00,
2013-04-15 03:22:00,47.0,46.0,29.65,SSW,199,5.0,10.0,95,0.00,,,0.01,,2013-04-15 10:22:00,
2013-04-15 03:32:00,47.0,46.0,29.65,SSW,199,5.0,10.0,95,0.00,,,0.01,,2013-04-15 10:32:00,
2013-04-15 03:42:00,47.0,46.0,29.65,SSW,199,5.0,10.0,95,0.00,,,0.01,,2013-04-15 10:42:00,
2013-04-15 03:52:00,47.0,46.0,29.64,SSW,200,8.0,10.0,95,0.00,,,0.01,,2013-04-15 10:52:00,
2013-04-15 04:02:00,47.0,45.0,29.65,SSW,207,9.0,12.0,94,0.00,,,0.01,,2013-04-15 11:02:00,
2013-04-15 04:12:00,47.0,45.0,29.65,SSW,207,9.0,12.0,94,0.00,,,0.01,,2013-04-15 11:12:00,
2013-04-15 04:32:00,47.0,45.0,29.65,SSW,204,7.0,10.0,94,0.00,,,0.01,,2013-04-15 11:32:00,
2013-04-15 04:42:00,47.0,45.0,29.65,SSW,204,7.0,10.0,94,0.00,,,0.01,,2013-04-15 11:42:00,
2013-04-15 04:53:00,47.0,45.0,29.64,SSW,211,5.0,8.0,94,0.00,,,0.00,,2013-04-15 11:53:00,
2013-04-15 05:02:00,47.0,45.0,29.64,SSW,197,8.0,11.0,94,0.00,,,0.00,,2013-04-15 12:02:00,
2013-04-15 05:13:00,47.0,45.0,29.64,SSW,197,8.0,11.0,94,0.00,,,0.00,,2013-04-15 12:13:00,
2013-04-15 05:22:00,46.0,45.0,29.64,SSW,199,6.0,10.0,95,0.00,,,0.00,,2013-04-15 12:22:00,
2013-04-15 05:33:00,46.0,45.0,29.64,SSW,199,6.0,10.0,95,0.00,,,0.00,,2013-04-15 12:33:00,
2013-04-15 05:42:00,46.0,45.0,29.64,SSW,199,6.0,10.0,95,0.00,,,0.00,,2013-04-15 12:42:00,
2013-04-15 05:53:00,46.0,45.0,29.64,South,190,5.0,8.0,95,0.00,,,0.00,,2013-04-15 12:53:00,
2013-04-15 06:02:00,47.0,46.0,29.63,South,183,3.0,7.0,96,0.00,,,0.00,,2013-04-15 13:02:00,
2013-04-15 06:12:00,47.0,46.0,29.63,South,183,3.0,7.0,96,0.00,,,0.00,,2013-04-15 13:12:00,
2013-04-15 06:22:00,47.0,46.0,29.63,SSE,165,5.0,10.0,96,0.00,,,0.00,,2013-04-15 13:22:00,
2013-04-15 06:32:00,47.0,46.0,29.63,SSE,165,5.0,10.0,96,0.00,,,0.00,,2013-04-15 13:32:00,
2013-04-15 06:42:00,47.0,46.0,29.63,SSE,165,5.0,10.0,96,0.00,,,0.00,,2013-04-15 13:42:00,
2013-04-15 06:53:00,47.0,46.0,29.64,South,170,3.0,5.0,96,0.00,,,0.00,,2013-04-15 13:53:00,
2013-04-15 07:05:00,49.0,-99.9,29.65,North,0,0.0,5.0,-999,0.00,,,0.00,,2013-04-15 14:05:00,
2013-04-15 07:14:00,49.0,-99.9,29.65,North,0,0.0,5.0,-999,0.00,,,0.00,,2013-04-15 14:14:00,
2013-04-15 07:21:00,47.0,46.0,29.65,South,176,3.0,6.0,95,0.00,,,0.00,,2013-04-15 14:21:00,
2013-04-15 07:32:00,47.0,46.0,29.65,South,176,3.0,6.0,95,0.00,,,0.00,,2013-04-15 14:32:00,
2013-04-15 07:42:00,47.0,46.0,29.65,South,176,3.0,6.0,95,0.00,,,0.00,,2013-04-15 14:42:00,
2013-04-15 07:54:00,47.0,46.0,29.65,South,176,1.0,5.0,96,0.00,,,0.00,,2013-04-15 14:54:00,
2013-04-15 08:02:00,47.0,46.0,29.66,North,0,0.0,4.0,96,0.00,,,0.00,,2013-04-15 15:02:00,
2013-04-15 08:12:00,47.0,46.0,29.66,North,0,0.0,4.0,96,0.00,,,0.00,,2013-04-15 15:12:00,
2013-04-15 08:22:00,46.0,45.0,29.66,North,0,0.0,3.0,96,0.00,,,0.00,,2013-04-15 15:22:00,
2013-04-15 08:34:00,46.0,45.0,29.66,North,0,0.0,3.0,96,0.00,,,0.00,,2013-04-15 15:34:00,
2013-04-15 08:42:00,46.0,45.0,29.66,North,0,0.0,3.0,96,0.00,,,0.00,,2013-04-15 15:42:00,
2013-04-15 08:54:00,46.0,45.0,29.66,SSE,160,1.0,6.0,97,0.00,,,0.00,,2013-04-15 15:54:00,
2013-04-15 09:02:00,46.0,45.0,29.67,North,0,0.0,4.0,97,0.00,,,0.00,,2013-04-15 16:02:00,
2013-04-15 09:13:00,46.0,45.0,29.67,North,0,0.0,4.0,97,0.00,,,0.00,,2013-04-15 16:13:00,
2013-04-15 09:23:00,47.0,46.0,29.67,North,0,0.0,3.0,96,0.00,,,0.00,,2013-04-15 16:23:00,
2013-04-15 09:32:00,47.0,46.0,29.67,North,0,0.0,3.0,96,0.00,,,0.00,,2013-04-15 16:32:00,
2013-04-15 09:42:00,47.0,46.0,29.67,North,0,0.0,3.0,96,0.00,,,0.00,,2013-04-15 16:42:00,
2013-04-15 09:53:00,47.0,46.0,29.68,SSE,168,2.0,6.0,97,0.00,,,0.00,,2013-04-15 16:53:00,
2013-04-15 10:02:00,47.0,46.0,29.68,SSE,158,8.0,10.0,97,0.00,,,0.00,,2013-04-15 17:02:00,
2013-04-15 10:13:00,47.0,46.0,29.68,SSE,158,8.0,10.0,97,0.00,,,0.00,,2013-04-15 17:13:00,
2013-04-15 10:21:00,47.0,46.0,29.68,South,169,5.0,9.0,97,0.00,,,0.00,,2013-04-15 17:21:00,
2013-04-15 10:32:00,47.0,46.0,29.68,South,169,5.0,9.0,97,0.00,,,0.00,,2013-04-15 17:32:00,
2013-04-15 10:42:00,47.0,46.0,29.68,South,169,5.0,9.0,97,0.00,,,0.00,,2013-04-15 17:42:00,
2013-04-15 10:52:00,47.0,46.0,29.69,South,172,5.0,9.0,97,0.00,,,0.00,,2013-04-15 17:52:00,
2013-04-15 11:02:00,48.0,47.0,29.69,South,170,6.0,9.0,97,0.00,,,0.00,,2013-04-15 18:02:00,
2013-04-15 11:22:00,48.0,47.0,29.70,South,173,7.0,11.0,97,0.00,,,0.00,,2013-04-15 18:22:00,
2013-04-15 11:32:00,48.0,47.0,29.70,South,173,7.0,11.0,97,0.00,,,0.00,,2013-04-15 18:32:00,
2013-04-15 11:41:00,48.0,47.0,29.70,South,173,7.0,11.0,97,0.00,,,0.00,,2013-04-15 18:41:00,
2013-04-15 11:52:00,48.0,47.0,29.70,SSE,152,8.0,11.0,97,0.00,,,0.00,,2013-04-15 18:52:00,
2013-04-15 12:01:00,48.0,47.0,29.70,South,175,9.0,13.0,97,0.00,,,0.00,,2013-04-15 19:01:00,
2013-04-15 12:12:00,48.0,47.0,29.70,South,175,9.0,13.0,97,0.00,,,0.00,,2013-04-15 19:12:00,
2013-04-15 12:21:00,49.0,48.0,29.70,South,177,10.0,16.0,97,0.00,,,0.00,,2013-04-15 19:21:00,
2013-04-15 12:33:00,49.0,48.0,29.70,South,177,10.0,16.0,97,0.00,,,0.00,,2013-04-15 19:33:00,
2013-04-15 12:42:00,49.0,48.0,29.70,South,177,10.0,16.0,97,0.00,,,0.00,,2013-04-15 19:42:00,
2013-04-15 12:59:00,50.0,49.0,29.70,South,174,12.0,19.0,96,0.00,,,0.00,,2013-04-15 19:59:00,
2013-04-15 13:11:00,50.0,48.0,29.70,South,176,9.0,16.0,92,0.00,,,0.00,,2013-04-15 20:11:00,
2013-04-15 13:21:00,50.0,48.0,29.69,South,174,8.0,16.0,92,0.00,,,0.00,,2013-04-15 20:21:00,
2013-04-15 13:32:00,50.0,48.0,29.69,South,174,8.0,16.0,92,0.00,,,0.00,,2013-04-15 20:32:00,
2013-04-15 13:42:00,50.0,48.0,29.69,South,174,8.0,16.0,92,0.00,,,0.00,,2013-04-15 20:42:00,
2013-04-15 13:52:00,49.0,47.0,29.69,SSE,168,10.0,16.0,92,0.00,,,0.00,,2013-04-15 20:52:00,
2013-04-15 14:01:00,49.0,47.0,29.69,South,172,8.0,15.0,92,0.00,,,0.00,,2013-04-15 21:01:00,
2013-04-15 14:11:00,49.0,47.0,29.69,South,172,8.0,15.0,92,0.00,,,0.00,,2013-04-15 21:11:00,
2013-04-15 14:21:00,48.0,46.0,29.69,South,173,5.0,13.0,92,0.00,,,0.00,,2013-04-15 21:21:00,
2013-04-15 14:32:00,48.0,46.0,29.69,South,173,5.0,13.0,92,0.00,,,0.00,,2013-04-15 21:32:00,
2013-04-15 14:42:00,48.0,46.0,29.69,South,173,5.0,13.0,92,0.00,,,0.00,,2013-04-15 21:42:00,
2013-04-15 14:53:00,49.0,47.0,29.68,South,175,7.0,11.0,92,0.00,,,0.00,,2013-04-15 21:53:00,
2013-04-15 15:02:00,49.0,46.0,29.68,South,169,5.0,12.0,91,0.00,,,0.00,,2013-04-15 22:02:00,
2013-04-15 15:13:00,49.0,46.0,29.68,South,169,5.0,12.0,91,0.00,,,0.00,,2013-04-15 22:13:00,
2013-04-15 15:22:00,49.0,47.0,29.67,SSE,165,6.0,10.0,92,0.00,,,0.00,,2013-04-15 22:22:00,
2013-04-15 15:32:00,49.0,47.0,29.67,SSE,165,6.0,10.0,92,0.00,,,0.00,,2013-04-15 22:32:00,
2013-04-15 15:42:00,49.0,47.0,29.67,SSE,165,6.0,10.0,92,0.00,,,0.00,,2013-04-15 22:42:00,
2013-04-15 15:52:00,49.0,47.0,29.67,South,174,5.0,11.0,92,0.00,,,0.00,,2013-04-15 22:52:00,
2013-04-15 16:02:00,50.0,47.0,29.66,South,185,5.0,9.0,91,0.00,,,0.00,,2013-04-15 23:02:00,
2013-04-15 16:12:00,50.0,47.0,29.66,South,185,5.0,9.0,91,0.00,,,0.00,,2013-04-15 23:12:00,
2013-04-15 16:22:00,50.0,47.0,29.66,SSE,166,4.0,10.0,90,0.00,,,0.00,,2013-04-15 23:22:00,
2013-04-15 16:32:00,50.0,47.0,29.66,SSE,166,4.0,10.0,90,0.00,,,0.00,,2013-04-15 23:32:00,
2013-04-15 16:41:00,50.0,47.0,29.66,SSE,166,4.0,10.0,90,0.00,,,0.00,,2013-04-15 23:41:00,
2013-04-15 16:52:00,50.0,47.0,29.66,South,189,3.0,8.0,91,0.00,,,0.00,,2013-04-15 23:52:00,
2013-04-15 17:01:00,50.0,47.0,29.65,SSW,194,2.0,7.0,90,0.00,,,0.00,,2013-04-16 00:01:00,
2013-04-15 17:11:00,50.0,47.0,29.65,SSW,194,2.0,7.0,90,0.00,,,0.00,,2013-04-16 00:11:00,
2013-04-15 17:21:00,50.0,47.0,29.65,South,175,2.0,8.0,90,0.00,,,0.00,,2013-04-16 00:21:00,
2013-04-15 17:31:00,50.0,47.0,29.65,South,175,2.0,8.0,90,0.00,,,0.00,,2013-04-16 00:31:00,
2013-04-15 17:41:00,50.0,47.0,29.65,South,175,2.0,8.0,90,0.00,,,0.00,,2013-04-16 00:41:00,
2013-04-15 17:52:00,49.0,46.0,29.65,South,186,4.0,11.0,90,0.00,,,0.00,,2013-04-16 00:52:00,
2013-04-15 18:01:00,48.0,45.0,29.65,South,190,7.0,11.0,90,0.00,,,0.00,,2013-04-16 01:01:00,
2013-04-15 18:12:00,48.0,46.0,29.65,South,174,7.0,9.0,92,0.00,,,0.00,,2013-04-16 01:12:00,
2013-04-15 18:21:00,48.0,46.0,29.65,South,174,7.0,9.0,92,0.00,,,0.00,,2013-04-16 01:21:00,
2013-04-15 18:32:00,48.0,46.0,29.65,South,174,7.0,9.0,92,0.00,,,0.00,,2013-04-16 01:32:00,
2013-04-15 18:42:00,48.0,46.0,29.65,South,174,7.0,9.0,92,0.00,,,0.00,,2013-04-16 01:42:00,
2013-04-15 18:52:00,48.0,46.0,29.65,South,174,3.0,8.0,92,0.00,,,0.00,,2013-04-16 01:52:00,
2013-04-15 19:01:00,47.0,45.0,29.64,SSE,167,5.0,8.0,92,0.00,,,0.00,,2013-04-16 02:01:00,
2013-04-15 19:12:00,47.0,45.0,29.64,SSE,167,5.0,8.0,92,0.00,,,0.00,,2013-04-16 02:12:00,
2013-04-15 19:21:00,47.0,45.0,29.64,South,173,6.0,10.0,92,0.00,,,0.00,,2013-04-16 02:21:00,
2013-04-15 19:32:00,47.0,45.0,29.64,South,173,6.0,10.0,92,0.00,,,0.00,,2013-04-16 02:32:00,
2013-04-15 19:42:00,47.0,45.0,29.64,South,173,6.0,10.0,92,0.00,,,0.00,,2013-04-16 02:42:00,
2013-04-15 19:52:00,46.0,44.0,29.65,SSE,166,3.0,8.0,93,0.00,,,0.00,,2013-04-16 02:52:00,
2013-04-15 20:01:00,46.0,44.0,29.65,SSW,196,6.0,10.0,92,0.00,,,0.00,,2013-04-16 03:01:00,
2013-04-15 20:12:00,46.0,44.0,29.65,SSW,196,6.0,10.0,92,0.00,,,0.00,,2013-04-16 03:12:00,
2013-04-15 20:22:00,47.0,43.0,29.65,SSW,209,9.0,12.0,87,0.00,,,0.00,,2013-04-16 03:22:00,
2013-04-15 20:32:00,47.0,43.0,29.65,SSW,209,9.0,12.0,87,0.00,,,0.00,,2013-04-16 03:32:00,
2013-04-15 20:43:00,47.0,43.0,29.65,SSW,209,9.0,12.0,87,0.00,,,0.00,,2013-04-16 03:43:00,
2013-04-15 20:52:00,47.0,43.0,29.65,SW,217,5.0,8.0,85,0.00,,,0.00,,2013-04-16 03:52:00,
2013-04-15 21:02:00,47.0,41.0,29.65,SSW,207,8.0,11.0,81,0.00,,,0.00,,2013-04-16 04:02:00,
2013-04-15 21:12:00,47.0,41.0,29.65,SSW,207,8.0,11.0,81,0.00,,,0.00,,2013-04-16 04:12:00,
2013-04-15 21:23:00,47.0,42.0,29.66,SSW,211,5.0,11.0,82,0.00,,,0.00,,2013-04-16 04:23:00,
2013-04-15 21:32:00,47.0,42.0,29.66,SSW,211,5.0,11.0,82,0.00,,,0.00,,2013-04-16 04:32:00,
2013-04-15 21:42:00,47.0,42.0,29.66,SSW,211,5.0,11.0,82,0.00,,,0.00,,2013-04-16 04:42:00,
2013-04-15 21:52:00,47.0,42.0,29.67,SSW,198,6.0,9.0,83,0.00,,,0.00,,2013-04-16 04:52:00,
2013-04-15 22:02:00,47.0,42.0,29.67,WSW,246,4.0,8.0,84,0.00,,,0.00,,2013-04-16 05:02:00,
2013-04-15 22:12:00,47.0,42.0,29.67,WSW,246,4.0,8.0,84,0.00,,,0.00,,2013-04-16 05:12:00,
2013-04-15 22:22:00,47.0,42.0,29.67,North,0,0.0,5.0,84,0.00,,,0.00,,2013-04-16 05:22:00,
2013-04-15 22:32:00,47.0,42.0,29.67,North,0,0.0,5.0,84,0.00,,,0.00,,2013-04-16 05:32:00,
2013-04-15 22:42:00,47.0,42.0,29.67,North,0,0.0,5.0,84,0.00,,,0.00,,2013-04-16 05:42:00,
2013-04-15 22:52:00,45.0,41.0,29.66,SSE,152,9.0,10.0,86,0.00,,,0.00,,2013-04-16 05:52:00,
2013-04-15 23:02:00,45.0,41.0,29.66,SSE,158,7.0,9.0,87,0.00,,,0.00,,2013-04-16 06:02:00,
2013-04-15 23:12:00,45.0,41.0,29.66,SSE,157,8.0,12.0,86,0.00,,,0.00,,2013-04-16 06:12:00,
2013-04-15 23:21:00,45.0,41.0,29.66,SSE,157,8.0,12.0,86,0.00,,,0.00,,2013-04-16 06:21:00,
2013-04-15 23:32:00,45.0,41.0,29.66,SSE,157,8.0,12.0,86,0.00,,,0.00,,2013-04-16 06:32:00,
2013-04-15 23:41:00,45.0,41.0,29.66,SSE,157,8.0,12.0,86,0.00,,,0.00,,2013-04-16 06:41:00,
2013-04-15 23:52:00,44.0,41.0,29.67,SSE,153,7.0,10.0,89,0.00,,,0.00,,2013-04-16 06:52:00,